Location: Middelsbur
(53.6609°N, 7.5020°E)
Time: 00:16:21
(UTC+00:00)

Cosmos 1340 - Pass Details

Date: 06 July 2020
Orbit: 502 x 505 km, 81.2° (Epoch: 03 August)

Event Time Altitude Azimuth Distance (km) Brightness Sun altitude
Exits shadow 23:15:29 24° 184° (S) 1,076 3.7 -13.7°
Maximum altitude 23:17:38 77° 102° (ESE) 523 2.6 -13.7°
Drops below altitude 10° 23:21:25 10° 16° (NNE) 1,726 6.6 -13.7°
Sets 23:23:33 0° 15° (NNE) 2,616 7.8 -13.7°
